Time,TemperatureF,DewpointF,PressureIn,WindDirection,WindDirectionDegrees,WindSpeedMPH,WindSpeedGustMPH,Humidity,HourlyPrecipIn,Conditions,Clouds,dailyrainin,SolarRadiationWatts/m^2,SoftwareType,DateUTC
2013-11-13 00:01:00,66.1,58.7,29.99,NE,39,5.0,10.4,77,0.00,CLR,,0.00,0.0,WeatherDisplay:10.37,2013-11-13 10:01:00,
2013-11-13 00:06:00,66.0,58.9,29.99,NNE,30,3.4,5.8,78,0.00,CLR,,0.00,0.0,WeatherDisplay:10.37,2013-11-13 10:06:00,
2013-11-13 00:11:00,65.9,58.8,30.00,NE,46,5.9,9.2,78,0.00,CLR,,0.00,0.0,WeatherDisplay:10.37,2013-11-13 10:11:00,
2013-11-13 00:16:00,65.9,58.8,30.00,North,355,4.5,11.5,78,0.00,CLR,,0.00,0.0,WeatherDisplay:10.37,2013-11-13 10:16:00,
2013-11-13 00:21:00,65.9,58.5,30.00,NNE,30,5.7,11.5,77,0.00,CLR,,0.00,0.0,WeatherDisplay:10.37,2013-11-13 10:21:00,
2013-11-13 00:26:00,66.0,58.6,30.00,NNW,338,7.7,12.0,77,0.00,CLR,,0.00,0.0,WeatherDisplay:10.37,2013-11-13 10:26:00,
2013-11-13 00:31:00,66.1,58.7,29.99,NNE,15,7.3,9.2,77,0.00,CLR,,0.00,0.0,WeatherDisplay:10.37,2013-11-13 10:31:00,
2013-11-13 00:36:00,66.0,58.6,29.99,NNE,18,6.0,9.2,77,0.00,CLR,,0.00,0.0,WeatherDisplay:10.37,2013-11-13 10:36:00,
2013-11-13 00:41:00,66.0,58.9,29.99,North,5,4.2,5.8,78,0.00,CLR,,0.00,0.0,WeatherDisplay:10.37,2013-11-13 10:41:00,
2013-11-13 00:46:00,65.9,58.8,30.00,North,5,4.0,9.2,78,0.00,CLR,,0.00,0.0,WeatherDisplay:10.37,2013-11-13 10:46:00,
2013-11-13 00:51:00,65.9,59.2,30.00,North,360,3.9,9.2,79,0.00,CLR,,0.00,0.0,WeatherDisplay:10.37,2013-11-13 10:51:00,
2013-11-13 00:56:00,65.8,59.1,29.99,North,355,4.3,10.4,79,0.00,CLR,,0.00,0.0,WeatherDisplay:10.37,2013-11-13 10:56:00,
2013-11-13 01:01:00,65.8,59.1,29.99,NE,54,3.9,9.2,79,0.00,CLR,,0.00,0.0,WeatherDisplay:10.37,2013-11-13 11:01:00,
2013-11-13 01:06:00,65.7,59.0,29.99,North,5,3.6,8.0,79,0.00,CLR,,0.00,0.0,WeatherDisplay:10.37,2013-11-13 11:06:00,
2013-11-13 01:11:00,65.8,59.1,29.99,North,5,4.4,9.2,79,0.00,CLR,,0.00,0.0,WeatherDisplay:10.37,2013-11-13 11:11:00,
2013-11-13 01:16:00,65.8,59.1,29.99,North,5,4.9,8.1,79,0.00,CLR,,0.00,0.0,WeatherDisplay:10.37,2013-11-13 11:16:00,
2013-11-13 01:21:00,65.8,59.1,29.99,NNW,345,6.7,8.1,79,0.00,CLR,,0.00,0.0,WeatherDisplay:10.37,2013-11-13 11:21:00,
2013-11-13 01:26:00,65.8,59.1,29.99,North,355,6.9,9.2,79,0.00,CLR,,0.00,0.0,WeatherDisplay:10.37,2013-11-13 11:26:00,
2013-11-13 01:31:00,65.7,59.0,29.99,NNE,15,4.4,10.4,79,0.00,CLR,,0.00,0.0,WeatherDisplay:10.37,2013-11-13 11:31:00,
2013-11-13 01:36:00,65.8,59.5,29.99,NNW,346,2.9,4.6,80,0.00,CLR,,0.00,0.0,WeatherDisplay:10.37,2013-11-13 11:36:00,
2013-11-13 01:41:00,65.7,59.4,29.99,NE,44,4.2,10.4,80,0.00,CLR,,0.00,0.0,WeatherDisplay:10.37,2013-11-13 11:41:00,
2013-11-13 01:46:00,65.7,59.4,29.98,NNE,28,4.3,11.5,80,0.00,CLR,,0.00,0.0,WeatherDisplay:10.37,2013-11-13 11:46:00,
2013-11-13 01:51:00,65.6,59.3,29.98,NNE,25,4.8,9.0,80,0.00,CLR,,0.00,0.0,WeatherDisplay:10.37,2013-11-13 11:51:00,
2013-11-13 01:56:00,65.6,59.3,29.98,NNE,15,6.0,9.2,80,0.00,CLR,,0.00,0.0,WeatherDisplay:10.37,2013-11-13 11:56:00,
2013-11-13 02:01:00,65.5,59.2,29.98,NNE,20,3.8,6.9,80,0.00,CLR,,0.00,0.0,WeatherDisplay:10.37,2013-11-13 12:01:00,
2013-11-13 02:06:00,65.5,59.2,29.98,North,5,5.8,8.1,80,0.00,CLR,,0.00,0.0,WeatherDisplay:10.37,2013-11-13 12:06:00,
2013-11-13 02:11:00,65.5,59.2,29.98,North,360,2.9,8.1,80,0.00,CLR,,0.00,0.0,WeatherDisplay:10.37,2013-11-13 12:11:00,
2013-11-13 02:16:00,65.5,59.2,29.98,North,10,4.6,9.2,80,0.00,CLR,,0.00,0.0,WeatherDisplay:10.37,2013-11-13 12:16:00,
2013-11-13 02:21:00,65.4,59.1,29.98,NNW,346,2.7,5.8,80,0.00,CLR,,0.00,0.0,WeatherDisplay:10.37,2013-11-13 12:21:00,
2013-11-13 02:26:00,65.4,59.1,29.98,North,5,4.6,10.4,80,0.00,CLR,,0.00,0.0,WeatherDisplay:10.37,2013-11-13 12:26:00,
2013-11-13 02:31:00,65.4,59.1,29.97,North,355,4.4,8.1,80,0.00,CLR,,0.00,0.0,WeatherDisplay:10.37,2013-11-13 12:31:00,
2013-11-13 02:36:00,65.4,59.1,29.97,NNE,20,3.8,4.6,80,0.00,CLR,,0.00,0.0,WeatherDisplay:10.37,2013-11-13 12:36:00,
2013-11-13 02:41:00,65.4,59.1,29.97,NNE,13,4.3,8.1,80,0.00,CLR,,0.00,0.0,WeatherDisplay:10.37,2013-11-13 12:41:00,
2013-11-13 02:46:00,65.5,58.8,29.97,NE,38,2.8,8.1,79,0.00,CLR,,0.00,0.0,WeatherDisplay:10.37,2013-11-13 12:46:00,
2013-11-13 02:51:00,65.5,58.8,29.97,NNE,29,2.2,4.6,79,0.00,CLR,,0.00,0.0,WeatherDisplay:10.37,2013-11-13 12:51:00,
2013-11-13 02:56:00,65.5,58.8,29.97,NNW,345,4.1,8.1,79,0.00,CLR,,0.00,0.0,WeatherDisplay:10.37,2013-11-13 12:56:00,
2013-11-13 03:01:00,65.5,58.8,29.97,NNE,13,5.4,5.8,79,0.00,CLR,,0.00,0.0,WeatherDisplay:10.37,2013-11-13 13:01:00,
2013-11-13 03:06:00,65.5,58.8,29.97,North,350,3.7,9.2,79,0.00,CLR,,0.00,0.0,WeatherDisplay:10.37,2013-11-13 13:06:00,
2013-11-13 03:11:00,65.6,58.9,29.97,NNE,17,3.6,10.4,79,0.00,CLR,,0.00,0.0,WeatherDisplay:10.37,2013-11-13 13:11:00,
2013-11-13 03:16:00,65.6,58.9,29.97,NNE,24,2.7,3.5,79,0.00,CLR,,0.00,0.0,WeatherDisplay:10.37,2013-11-13 13:16:00,
2013-11-13 03:21:00,65.6,58.9,29.97,NNE,13,4.0,6.0,79,0.00,CLR,,0.00,0.0,WeatherDisplay:10.37,2013-11-13 13:21:00,
2013-11-13 03:26:00,65.6,58.9,29.97,NNW,338,3.7,11.5,79,0.00,CLR,,0.00,0.0,WeatherDisplay:10.37,2013-11-13 13:26:00,
2013-11-13 03:31:00,65.6,58.6,29.97,NE,40,5.2,9.2,78,0.00,CLR,,0.00,0.0,WeatherDisplay:10.37,2013-11-13 13:31:00,
2013-11-13 03:36:00,65.6,58.6,29.97,North,355,5.0,8.1,78,0.00,CLR,,0.00,0.0,WeatherDisplay:10.37,2013-11-13 13:36:00,
2013-11-13 03:41:00,65.6,58.2,29.97,North,355,3.0,4.6,77,0.00,CLR,,0.00,0.0,WeatherDisplay:10.37,2013-11-13 13:41:00,
2013-11-13 03:46:00,65.5,58.1,29.97,NNE,23,2.5,8.1,77,0.00,CLR,,0.00,0.0,WeatherDisplay:10.37,2013-11-13 13:46:00,
2013-11-13 03:51:00,65.5,58.1,29.97,NNW,333,3.3,8.1,77,0.00,CLR,,0.00,0.0,WeatherDisplay:10.37,2013-11-13 13:51:00,
2013-11-13 03:56:00,65.5,58.1,29.96,NE,42,2.8,6.9,77,0.00,CLR,,0.00,0.0,WeatherDisplay:10.37,2013-11-13 13:56:00,
2013-11-13 04:02:00,65.5,57.7,29.96,NW,325,4.3,9.0,76,0.00,CLR,,0.00,0.0,WeatherDisplay:10.37,2013-11-13 14:02:00,
2013-11-13 04:07:00,65.5,57.7,29.96,North,351,3.5,9.2,76,0.00,CLR,,0.00,0.0,WeatherDisplay:10.37,2013-11-13 14:07:00,
2013-11-13 04:12:00,65.4,57.6,29.97,NE,34,2.9,5.8,76,0.00,CLR,,0.00,0.0,WeatherDisplay:10.37,2013-11-13 14:12:00,
2013-11-13 04:17:00,65.4,57.6,29.97,NNW,340,2.4,9.2,76,0.00,CLR,,0.00,0.0,WeatherDisplay:10.37,2013-11-13 14:17:00,
2013-11-13 04:22:00,65.4,57.6,29.97,North,360,1.2,3.5,76,0.00,CLR,,0.00,0.0,WeatherDisplay:10.37,2013-11-13 14:22:00,
2013-11-13 04:27:00,65.3,57.5,29.97,NNE,24,1.4,3.5,76,0.00,CLR,,0.00,0.0,WeatherDisplay:10.37,2013-11-13 14:27:00,
2013-11-13 04:32:00,65.2,57.4,29.97,NNE,29,3.0,8.1,76,0.00,CLR,,0.00,0.0,WeatherDisplay:10.37,2013-11-13 14:32:00,
2013-11-13 04:37:00,65.2,57.8,29.97,North,355,3.4,5.8,77,0.00,CLR,,0.00,0.0,WeatherDisplay:10.37,2013-11-13 14:37:00,
2013-11-13 04:42:00,65.2,57.8,29.97,NNE,15,2.4,4.6,77,0.00,CLR,,0.00,0.0,WeatherDisplay:10.37,2013-11-13 14:42:00,
2013-11-13 04:47:00,65.1,57.7,29.97,NNW,348,1.7,4.6,77,0.00,CLR,,0.00,0.0,WeatherDisplay:10.37,2013-11-13 14:47:00,
2013-11-13 04:52:00,65.0,57.6,29.97,NE,45,1.7,3.5,77,0.00,CLR,,0.00,0.0,WeatherDisplay:10.37,2013-11-13 14:52:00,
2013-11-13 04:57:00,64.9,57.9,29.97,NNW,346,1.3,3.5,78,0.00,CLR,,0.00,0.0,WeatherDisplay:10.37,2013-11-13 14:57:00,
2013-11-13 05:02:00,64.9,57.9,29.97,North,350,2.6,5.8,78,0.00,CLR,,0.00,0.0,WeatherDisplay:10.37,2013-11-13 15:02:00,
2013-11-13 05:07:00,65.0,58.0,29.97,NE,47,2.9,3.5,78,0.00,CLR,,0.00,0.0,WeatherDisplay:10.37,2013-11-13 15:07:00,
2013-11-13 05:12:00,65.0,58.3,29.97,NE,41,1.6,4.6,79,0.00,CLR,,0.00,0.0,WeatherDisplay:10.37,2013-11-13 15:12:00,
2013-11-13 05:17:00,64.9,58.2,29.97,North,5,2.9,8.1,79,0.00,CLR,,0.00,0.0,WeatherDisplay:10.37,2013-11-13 15:17:00,
2013-11-13 05:22:00,64.9,58.2,29.97,North,5,2.1,4.6,79,0.00,CLR,,0.00,0.0,WeatherDisplay:10.37,2013-11-13 15:22:00,
2013-11-13 05:27:00,64.9,58.6,29.97,North,11,2.7,4.6,80,0.00,CLR,,0.00,0.0,WeatherDisplay:10.37,2013-11-13 15:27:00,
2013-11-13 05:32:00,65.0,58.7,29.97,NNE,16,1.3,3.5,80,0.00,CLR,,0.00,0.0,WeatherDisplay:10.37,2013-11-13 15:32:00,
2013-11-13 05:37:00,65.0,58.7,29.97,North,355,4.5,6.9,80,0.00,CLR,,0.00,0.0,WeatherDisplay:10.37,2013-11-13 15:37:00,
2013-11-13 05:42:00,65.0,58.7,29.97,North,355,4.8,8.1,80,0.00,CLR,,0.00,0.0,WeatherDisplay:10.37,2013-11-13 15:42:00,
2013-11-13 05:47:00,65.0,58.7,29.97,NE,52,2.7,3.5,80,0.00,CLR,,0.00,0.0,WeatherDisplay:10.37,2013-11-13 15:47:00,
2013-11-13 05:52:00,65.0,58.7,29.98,NNE,18,4.6,8.1,80,0.00,CLR,,0.00,0.0,WeatherDisplay:10.37,2013-11-13 15:52:00,
2013-11-13 05:57:00,65.0,58.7,29.98,North,355,2.9,8.1,80,0.00,CLR,,0.00,0.0,WeatherDisplay:10.37,2013-11-13 15:57:00,
2013-11-13 06:02:00,65.0,58.7,29.98,NNW,342,2.2,5.8,80,0.00,CLR,,0.00,0.0,WeatherDisplay:10.37,2013-11-13 16:02:00,
2013-11-13 06:07:00,64.9,58.2,29.98,North,11,1.1,3.5,79,0.00,CLR,,0.00,0.0,WeatherDisplay:10.37,2013-11-13 16:07:00,
2013-11-13 06:12:00,64.9,58.2,29.98,NNE,21,2.0,4.6,79,0.00,CLR,,0.00,0.0,WeatherDisplay:10.37,2013-11-13 16:12:00,
2013-11-13 06:17:00,64.8,58.1,29.98,NNE,30,1.8,3.5,79,0.00,CLR,,0.00,0.0,WeatherDisplay:10.37,2013-11-13 16:17:00,
2013-11-13 06:22:00,64.7,58.0,29.98,North,355,2.5,5.0,79,0.00,CLR,,0.00,0.0,WeatherDisplay:10.37,2013-11-13 16:22:00,
2013-11-13 06:27:00,64.7,58.0,29.98,NNE,16,1.3,3.5,79,0.00,CLR,,0.00,0.0,WeatherDisplay:10.37,2013-11-13 16:27:00,
2013-11-13 06:32:00,64.8,58.1,29.98,NNE,17,3.2,9.2,79,0.00,CLR,,0.00,0.0,WeatherDisplay:10.37,2013-11-13 16:32:00,
2013-11-13 06:37:00,65.0,58.0,29.98,NNW,338,3.0,6.9,78,0.00,CLR,,0.00,0.0,WeatherDisplay:10.37,2013-11-13 16:37:00,
2013-11-13 06:42:00,65.2,58.2,29.99,NNE,19,2.9,6.9,78,0.00,CLR,,0.00,5.0,WeatherDisplay:10.37,2013-11-13 16:42:00,
2013-11-13 06:47:00,65.2,57.8,29.99,North,5,2.9,5.8,77,0.00,SCT,,0.00,9.0,WeatherDisplay:10.37,2013-11-13 16:47:00,
2013-11-13 06:52:00,65.2,57.8,29.99,NE,37,1.3,3.5,77,0.00,SCT,,0.00,12.0,WeatherDisplay:10.37,2013-11-13 16:52:00,
2013-11-13 06:57:00,65.3,57.9,29.99,NNE,28,1.7,3.5,77,0.00,BKN,,0.00,14.0,WeatherDisplay:10.37,2013-11-13 16:57:00,
2013-11-13 07:02:00,65.3,57.5,30.00,NNE,19,0.9,3.5,76,0.00,BKN,,0.00,18.0,WeatherDisplay:10.37,2013-11-13 17:02:00,
2013-11-13 07:07:00,65.4,57.6,30.00,NE,43,0.1,3.5,76,0.00,BKN,,0.00,21.0,WeatherDisplay:10.37,2013-11-13 17:07:00,
2013-11-13 07:12:00,65.5,57.7,30.00,NE,43,0.1,1.2,76,0.00,BKN,,0.00,28.0,WeatherDisplay:10.37,2013-11-13 17:12:00,
2013-11-13 07:17:00,65.6,57.8,30.00,NNE,31,0.9,3.5,76,0.00,BKN,,0.00,40.0,WeatherDisplay:10.37,2013-11-13 17:17:00,
2013-11-13 07:22:00,65.9,58.1,30.00,NNE,21,3.7,4.0,76,0.00,SCT,,0.00,54.0,WeatherDisplay:10.37,2013-11-13 17:22:00,
2013-11-13 07:27:00,66.2,58.4,30.00,NNE,19,2.7,5.8,76,0.00,SCT,,0.00,70.0,WeatherDisplay:10.37,2013-11-13 17:27:00,
2013-11-13 07:32:00,66.7,58.9,30.00,NNE,20,0.9,3.5,76,0.00,CLR,,0.00,86.0,WeatherDisplay:10.37,2013-11-13 17:32:00,
2013-11-13 07:37:00,67.0,59.2,30.00,NE,38,2.3,3.5,76,0.00,CLR,,0.00,105.0,WeatherDisplay:10.37,2013-11-13 17:37:00,
2013-11-13 07:42:00,67.3,59.1,30.00,NE,35,3.7,6.9,75,0.00,CLR,,0.00,127.0,WeatherDisplay:10.37,2013-11-13 17:42:00,
2013-11-13 07:47:00,67.6,59.0,30.00,North,9,4.2,8.1,74,0.00,CLR,,0.00,149.0,WeatherDisplay:10.37,2013-11-13 17:47:00,
2013-11-13 07:52:00,67.9,59.3,30.00,North,9,3.8,8.1,74,0.00,CLR,,0.00,172.0,WeatherDisplay:10.37,2013-11-13 17:52:00,
2013-11-13 07:57:00,68.3,59.3,30.00,North,11,3.3,6.9,73,0.00,CLR,,0.00,195.0,WeatherDisplay:10.37,2013-11-13 17:57:00,
2013-11-13 08:02:00,68.6,59.2,30.01,NNE,20,3.9,9.2,72,0.00,CLR,,0.00,216.0,WeatherDisplay:10.37,2013-11-13 18:02:00,
2013-11-13 08:07:00,68.9,59.1,30.01,NNE,26,2.1,4.0,71,0.00,CLR,,0.00,234.0,WeatherDisplay:10.37,2013-11-13 18:07:00,
2013-11-13 08:12:00,69.2,59.0,30.01,NE,34,3.5,6.9,70,0.00,CLR,,0.00,255.0,WeatherDisplay:10.37,2013-11-13 18:12:00,
2013-11-13 08:17:00,69.4,59.2,30.01,NE,37,2.9,5.8,70,0.00,CLR,,0.00,272.0,WeatherDisplay:10.37,2013-11-13 18:17:00,
2013-11-13 08:22:00,69.6,59.0,30.01,NNE,13,2.0,5.0,69,0.00,CLR,,0.00,288.0,WeatherDisplay:10.37,2013-11-13 18:22:00,
2013-11-13 08:27:00,69.9,58.9,30.01,NNE,13,3.2,7.0,68,0.00,CLR,,0.00,306.0,WeatherDisplay:10.37,2013-11-13 18:27:00,
2013-11-13 08:32:00,70.1,59.0,30.01,NE,55,3.6,5.0,68,0.00,CLR,,0.00,325.0,WeatherDisplay:10.37,2013-11-13 18:32:00,
2013-11-13 08:37:00,70.4,58.5,30.01,NNE,30,2.9,4.6,66,0.00,CLR,,0.00,343.0,WeatherDisplay:10.37,2013-11-13 18:37:00,
2013-11-13 08:42:00,70.7,58.4,30.01,NE,53,3.3,5.0,65,0.00,CLR,,0.00,367.0,WeatherDisplay:10.37,2013-11-13 18:42:00,
2013-11-13 08:47:00,71.1,58.3,30.01,North,5,2.2,4.6,64,0.00,CLR,,0.00,378.0,WeatherDisplay:10.37,2013-11-13 18:47:00,
2013-11-13 08:52:00,71.4,58.6,30.01,North,5,1.5,3.5,64,0.00,CLR,,0.00,394.0,WeatherDisplay:10.37,2013-11-13 18:52:00,
2013-11-13 08:57:00,71.7,58.4,30.01,ENE,67,1.6,4.0,63,0.00,CLR,,0.00,411.0,WeatherDisplay:10.37,2013-11-13 18:57:00,
2013-11-13 09:02:00,72.1,59.2,30.01,NE,52,1.6,3.5,64,0.00,CLR,,0.00,427.0,WeatherDisplay:10.37,2013-11-13 19:02:00,
2013-11-13 09:07:00,72.5,58.7,30.02,ENE,69,0.4,2.0,62,0.00,CLR,,0.00,443.0,WeatherDisplay:10.37,2013-11-13 19:07:00,
2013-11-13 09:12:00,73.1,59.3,30.01,East,91,2.5,3.5,62,0.00,CLR,,0.00,461.0,WeatherDisplay:10.37,2013-11-13 19:12:00,
2013-11-13 09:17:00,73.5,58.8,30.01,ENE,62,1.7,4.6,60,0.00,CLR,,0.00,478.0,WeatherDisplay:10.37,2013-11-13 19:17:00,
2013-11-13 09:22:00,73.8,59.0,30.01,ENE,60,1.2,3.5,60,0.00,CLR,,0.00,503.0,WeatherDisplay:10.37,2013-11-13 19:22:00,
2013-11-13 09:27:00,74.0,59.2,30.02,ENE,66,0.6,2.3,60,0.00,CLR,,0.00,417.0,WeatherDisplay:10.37,2013-11-13 19:27:00,
2013-11-13 09:32:00,74.2,58.5,30.02,NE,37,1.7,3.5,58,0.00,CLR,,0.00,406.0,WeatherDisplay:10.37,2013-11-13 19:32:00,
2013-11-13 09:37:00,74.2,59.4,30.02,ENE,69,0.4,2.3,60,0.00,CLR,,0.00,371.0,WeatherDisplay:10.37,2013-11-13 19:37:00,
2013-11-13 09:42:00,74.3,58.6,30.02,ENE,74,3.3,3.5,58,0.00,SCT,,0.00,383.0,WeatherDisplay:10.37,2013-11-13 19:42:00,
2013-11-13 09:47:00,74.3,59.5,30.02,NE,53,0.9,3.5,60,0.00,CLR,,0.00,524.0,WeatherDisplay:10.37,2013-11-13 19:47:00,
2013-11-13 09:52:00,74.6,59.3,30.02,ESE,111,3.6,6.9,59,0.00,CLR,,0.00,496.0,WeatherDisplay:10.37,2013-11-13 19:52:00,
2013-11-13 09:57:00,74.8,59.5,30.02,East,83,0.1,3.5,59,0.00,CLR,,0.00,568.0,WeatherDisplay:10.37,2013-11-13 19:57:00,
2013-11-13 10:02:00,75.0,59.7,30.02,ENE,72,1.5,3.5,59,0.00,CLR,,0.00,448.0,WeatherDisplay:10.37,2013-11-13 20:02:00,
2013-11-13 10:07:00,75.1,59.8,30.02,ENE,69,0.7,2.3,59,0.00,CLR,,0.00,559.0,WeatherDisplay:10.37,2013-11-13 20:07:00,
2013-11-13 10:12:00,75.2,58.9,30.02,NNE,19,1.4,2.3,57,0.00,CLR,,0.00,522.0,WeatherDisplay:10.37,2013-11-13 20:12:00,
2013-11-13 10:17:00,75.3,58.5,30.02,NNE,28,1.3,3.5,56,0.00,CLR,,0.00,526.0,WeatherDisplay:10.37,2013-11-13 20:17:00,
2013-11-13 10:22:00,75.5,58.2,30.02,NE,37,1.6,3.5,55,0.00,CLR,,0.00,394.0,WeatherDisplay:10.37,2013-11-13 20:22:00,
2013-11-13 10:27:00,75.5,58.7,30.02,NE,35,0.9,3.5,56,0.00,CLR,,0.00,587.0,WeatherDisplay:10.37,2013-11-13 20:27:00,
2013-11-13 10:32:00,75.7,58.9,30.01,NE,46,1.0,2.3,56,0.00,CLR,,0.00,482.0,WeatherDisplay:10.37,2013-11-13 20:32:00,
2013-11-13 10:37:00,75.9,58.6,30.01,NE,34,1.9,3.5,55,0.00,CLR,,0.00,700.0,WeatherDisplay:10.37,2013-11-13 20:37:00,
2013-11-13 10:42:00,76.1,58.2,30.01,ENE,66,2.2,3.5,54,0.00,CLR,,0.00,647.0,WeatherDisplay:10.37,2013-11-13 20:42:00,
2013-11-13 10:47:00,76.3,58.4,30.01,ENE,74,2.9,4.0,54,0.00,CLR,,0.00,675.0,WeatherDisplay:10.37,2013-11-13 20:47:00,
2013-11-13 10:52:00,76.5,57.6,30.00,ENE,70,0.4,1.2,52,0.00,CLR,,0.00,701.0,WeatherDisplay:10.37,2013-11-13 20:52:00,
2013-11-13 10:57:00,76.8,57.3,30.00,ESE,109,0.0,2.3,51,0.00,CLR,,0.00,659.0,WeatherDisplay:10.37,2013-11-13 20:57:00,
2013-11-13 11:02:00,77.1,57.6,30.00,ENE,59,0.3,2.3,51,0.00,CLR,,0.00,707.0,WeatherDisplay:10.37,2013-11-13 21:02:00,
2013-11-13 11:07:00,77.1,57.6,30.00,NNE,21,1.5,4.0,51,0.00,CLR,,0.00,747.0,WeatherDisplay:10.37,2013-11-13 21:07:00,
2013-11-13 11:12:00,77.2,57.1,30.00,ENE,62,2.0,3.0,50,0.00,CLR,,0.00,617.0,WeatherDisplay:10.37,2013-11-13 21:12:00,
2013-11-13 11:17:00,77.3,56.6,29.99,NNE,32,0.1,1.2,49,0.00,FEW,,0.00,443.0,WeatherDisplay:10.37,2013-11-13 21:17:00,
2013-11-13 11:22:00,77.3,58.3,29.99,SSW,202,0.8,4.6,52,0.00,CLR,,0.00,731.0,WeatherDisplay:10.37,2013-11-13 21:22:00,
2013-11-13 11:27:00,77.6,58.0,29.99,South,189,1.1,3.5,51,0.00,CLR,,0.00,722.0,WeatherDisplay:10.37,2013-11-13 21:27:00,
2013-11-13 11:32:00,78.0,58.4,29.99,East,84,1.4,3.0,51,0.00,CLR,,0.00,726.0,WeatherDisplay:10.37,2013-11-13 21:32:00,
2013-11-13 11:37:00,78.3,58.7,29.98,ENE,57,3.5,9.2,51,0.00,CLR,,0.00,744.0,WeatherDisplay:10.37,2013-11-13 21:37:00,
2013-11-13 11:42:00,78.6,57.8,29.98,SSE,155,4.3,5.8,49,0.00,CLR,,0.00,687.0,WeatherDisplay:10.37,2013-11-13 21:42:00,
2013-11-13 11:47:00,78.7,57.4,29.97,SSW,212,3.4,6.0,48,0.00,CLR,,0.00,656.0,WeatherDisplay:10.37,2013-11-13 21:47:00,
2013-11-13 11:52:00,78.6,57.3,29.97,South,188,4.3,6.9,48,0.00,CLR,,0.00,816.0,WeatherDisplay:10.37,2013-11-13 21:52:00,
2013-11-13 11:57:00,78.5,57.7,29.97,SSW,209,5.5,8.0,49,0.00,CLR,,0.00,622.0,WeatherDisplay:10.37,2013-11-13 21:57:00,
2013-11-13 12:02:00,78.3,58.7,29.97,WSW,250,5.1,5.8,51,0.00,CLR,,0.00,740.0,WeatherDisplay:10.37,2013-11-13 22:02:00,
2013-11-13 12:08:00,78.3,57.0,29.97,SW,236,6.4,10.4,48,0.00,CLR,,0.00,772.0,WeatherDisplay:10.37,2013-11-13 22:08:00,
2013-11-13 12:13:00,78.4,57.7,29.97,SW,234,4.4,10.4,49,0.00,CLR,,0.00,770.0,WeatherDisplay:10.37,2013-11-13 22:13:00,
2013-11-13 12:18:00,78.5,58.3,29.97,SSW,192,2.7,5.8,50,0.00,CLR,,0.00,656.0,WeatherDisplay:10.37,2013-11-13 22:18:00,
2013-11-13 12:23:00,78.8,58.6,29.96,NW,319,4.1,5.8,50,0.00,CLR,,0.00,798.0,WeatherDisplay:10.37,2013-11-13 22:23:00,
2013-11-13 12:28:00,79.2,58.4,29.96,SW,234,7.1,11.5,49,0.00,CLR,,0.00,751.0,WeatherDisplay:10.37,2013-11-13 22:28:00,
2013-11-13 12:33:00,79.2,57.8,29.96,SW,227,4.7,10.4,48,0.00,CLR,,0.00,798.0,WeatherDisplay:10.37,2013-11-13 22:33:00,
2013-11-13 12:38:00,79.2,59.0,29.96,SW,224,5.9,9.2,50,0.00,CLR,,0.00,696.0,WeatherDisplay:10.37,2013-11-13 22:38:00,
2013-11-13 12:43:00,78.9,58.1,29.96,SW,236,3.9,6.9,49,0.00,CLR,,0.00,729.0,WeatherDisplay:10.37,2013-11-13 22:43:00,
2013-11-13 12:48:00,78.9,58.7,29.95,SSW,205,8.3,12.7,50,0.00,CLR,,0.00,675.0,WeatherDisplay:10.37,2013-11-13 22:48:00,
2013-11-13 12:53:00,78.7,59.0,29.95,South,190,6.9,11.5,51,0.00,CLR,,0.00,751.0,WeatherDisplay:10.37,2013-11-13 22:53:00,
2013-11-13 12:58:00,78.5,59.4,29.95,SW,223,8.4,12.7,52,0.00,CLR,,0.00,756.0,WeatherDisplay:10.37,2013-11-13 22:58:00,
2013-11-13 13:03:00,77.9,59.9,29.95,SW,225,6.9,8.1,54,0.00,CLR,,0.00,742.0,WeatherDisplay:10.37,2013-11-13 23:03:00,
2013-11-13 13:08:00,77.7,58.7,29.94,SW,233,6.1,9.2,52,0.00,CLR,,0.00,733.0,WeatherDisplay:10.37,2013-11-13 23:08:00,
2013-11-13 13:13:00,77.5,59.0,29.95,SW,221,7.2,9.2,53,0.00,CLR,,0.00,728.0,WeatherDisplay:10.37,2013-11-13 23:13:00,
2013-11-13 13:18:00,77.4,58.4,29.94,SSW,202,5.1,6.9,52,0.00,CLR,,0.00,756.0,WeatherDisplay:10.37,2013-11-13 23:18:00,
2013-11-13 13:23:00,77.5,59.5,29.94,SSW,212,5.4,9.2,54,0.00,CLR,,0.00,752.0,WeatherDisplay:10.37,2013-11-13 23:23:00,
2013-11-13 13:28:00,77.5,60.1,29.94,SSW,196,6.4,9.2,55,0.00,CLR,,0.00,761.0,WeatherDisplay:10.37,2013-11-13 23:28:00,
2013-11-13 13:33:00,77.4,59.5,29.93,SSW,200,6.2,9.2,54,0.00,CLR,,0.00,708.0,WeatherDisplay:10.37,2013-11-13 23:33:00,
2013-11-13 13:38:00,77.4,59.5,29.93,SW,221,6.9,9.2,54,0.00,CLR,,0.00,698.0,WeatherDisplay:10.37,2013-11-13 23:38:00,
2013-11-13 13:43:00,77.1,59.2,29.93,SSW,197,5.0,10.4,54,0.00,CLR,,0.00,693.0,WeatherDisplay:10.37,2013-11-13 23:43:00,
2013-11-13 13:48:00,77.1,59.7,29.93,SSW,210,6.2,8.1,55,0.00,CLR,,0.00,684.0,WeatherDisplay:10.37,2013-11-13 23:48:00,
2013-11-13 13:53:00,77.0,59.6,29.93,SSW,200,6.9,11.5,55,0.00,CLR,,0.00,680.0,WeatherDisplay:10.37,2013-11-13 23:53:00,
2013-11-13 13:58:00,76.7,59.3,29.93,SSW,194,4.7,6.9,55,0.00,CLR,,0.00,638.0,WeatherDisplay:10.37,2013-11-13 23:58:00,
2013-11-13 14:03:00,76.8,59.9,29.93,SSW,207,5.9,10.4,56,0.00,CLR,,0.00,680.0,WeatherDisplay:10.37,2013-11-14 00:03:00,
2013-11-13 14:08:00,77.0,59.6,29.93,SW,230,3.0,8.1,55,0.00,CLR,,0.00,670.0,WeatherDisplay:10.37,2013-11-14 00:08:00,
2013-11-13 14:13:00,77.1,60.2,29.92,SSW,205,4.6,11.5,56,0.00,CLR,,0.00,680.0,WeatherDisplay:10.37,2013-11-14 00:13:00,
2013-11-13 14:18:00,76.8,59.4,29.93,West,275,4.0,8.1,55,0.00,CLR,,0.00,573.0,WeatherDisplay:10.37,2013-11-14 00:18:00,
2013-11-13 14:23:00,76.6,59.7,29.92,SW,227,6.1,8.1,56,0.00,CLR,,0.00,673.0,WeatherDisplay:10.37,2013-11-14 00:23:00,
2013-11-13 14:28:00,77.0,60.6,29.93,WSW,238,3.9,5.0,57,0.00,CLR,,0.00,668.0,WeatherDisplay:10.37,2013-11-14 00:28:00,
2013-11-13 14:33:00,77.0,59.6,29.93,WSW,245,4.2,8.0,55,0.00,FEW,,0.00,357.0,WeatherDisplay:10.37,2013-11-14 00:33:00,
2013-11-13 14:38:00,76.6,59.7,29.93,SSW,207,2.6,3.5,56,0.00,FEW,,0.00,352.0,WeatherDisplay:10.37,2013-11-14 00:38:00,
2013-11-13 14:43:00,76.3,59.9,29.92,West,264,3.0,3.5,57,0.00,CLR,,0.00,420.0,WeatherDisplay:10.37,2013-11-14 00:43:00,
2013-11-13 14:48:00,76.2,60.8,29.93,West,264,3.1,6.0,59,0.00,CLR,,0.00,543.0,WeatherDisplay:10.37,2013-11-14 00:48:00,
2013-11-13 14:53:00,76.2,60.3,29.93,SW,223,4.6,6.9,58,0.00,CLR,,0.00,513.0,WeatherDisplay:10.37,2013-11-14 00:53:00,
2013-11-13 14:58:00,76.1,60.2,29.93,SW,234,5.5,8.1,58,0.00,CLR,,0.00,657.0,WeatherDisplay:10.37,2013-11-14 00:58:00,
2013-11-13 15:03:00,76.0,59.7,29.93,West,280,3.2,6.9,57,0.00,FEW,,0.00,323.0,WeatherDisplay:10.37,2013-11-14 01:03:00,
2013-11-13 15:08:00,75.8,60.0,29.93,SW,223,3.5,9.2,58,0.00,SCT,,0.00,288.0,WeatherDisplay:10.37,2013-11-14 01:08:00,
2013-11-13 15:13:00,75.7,60.4,29.93,West,260,2.5,5.8,59,0.00,CLR,,0.00,320.0,WeatherDisplay:10.37,2013-11-14 01:13:00,
2013-11-13 15:18:00,75.7,59.4,29.93,SW,216,4.3,5.8,57,0.00,CLR,,0.00,390.0,WeatherDisplay:10.37,2013-11-14 01:18:00,
2013-11-13 15:23:00,75.9,60.1,29.93,SSW,201,5.3,9.2,58,0.00,CLR,,0.00,360.0,WeatherDisplay:10.37,2013-11-14 01:23:00,
2013-11-13 15:28:00,75.9,60.5,29.93,WSW,245,2.3,3.5,59,0.00,FEW,,0.00,258.0,WeatherDisplay:10.37,2013-11-14 01:28:00,
2013-11-13 15:33:00,76.0,61.1,29.93,West,267,3.0,6.9,60,0.00,CLR,,0.00,316.0,WeatherDisplay:10.37,2013-11-14 01:33:00,
2013-11-13 15:38:00,75.9,61.0,29.93,WSW,242,3.8,8.1,60,0.00,FEW,,0.00,236.0,WeatherDisplay:10.37,2013-11-14 01:38:00,
2013-11-13 15:43:00,76.0,61.6,29.93,South,180,4.2,8.1,61,0.00,CLR,,0.00,571.0,WeatherDisplay:10.37,2013-11-14 01:43:00,
2013-11-13 15:48:00,75.9,61.9,29.93,SW,224,3.4,4.6,62,0.00,SCT,,0.00,181.0,WeatherDisplay:10.37,2013-11-14 01:48:00,
2013-11-13 15:53:00,75.5,62.0,29.93,SSW,205,4.8,8.1,63,0.00,SCT,,0.00,190.0,WeatherDisplay:10.37,2013-11-14 01:53:00,
2013-11-13 15:58:00,75.0,62.0,29.94,SSW,192,2.9,5.0,64,0.00,FEW,,0.00,200.0,WeatherDisplay:10.37,2013-11-14 01:58:00,
2013-11-13 16:03:00,74.7,61.7,29.93,SSW,198,3.1,4.6,64,0.00,FEW,,0.00,181.0,WeatherDisplay:10.37,2013-11-14 02:03:00,
2013-11-13 16:08:00,74.4,61.9,29.93,SSW,208,3.6,5.8,65,0.00,SCT,,0.00,162.0,WeatherDisplay:10.37,2013-11-14 02:08:00,
2013-11-13 16:13:00,74.2,61.7,29.93,West,270,4.3,7.0,65,0.00,SCT,,0.00,160.0,WeatherDisplay:10.37,2013-11-14 02:13:00,
2013-11-13 16:18:00,74.0,61.9,29.93,West,278,0.3,3.5,66,0.00,BKN,,0.00,105.0,WeatherDisplay:10.37,2013-11-14 02:18:00,
2013-11-13 16:23:00,73.7,61.6,29.93,West,278,1.5,3.5,66,0.00,BKN,,0.00,111.0,WeatherDisplay:10.37,2013-11-14 02:23:00,
2013-11-13 16:28:00,73.6,61.5,29.93,SSW,212,1.1,6.9,66,0.00,SCT,,0.00,121.0,WeatherDisplay:10.37,2013-11-14 02:28:00,
2013-11-13 16:33:00,73.5,61.9,29.93,West,276,3.2,7.0,67,0.00,SCT,,0.00,130.0,WeatherDisplay:10.37,2013-11-14 02:33:00,
2013-11-13 16:38:00,73.4,61.8,29.93,WSW,254,2.4,3.5,67,0.00,BKN,,0.00,86.0,WeatherDisplay:10.37,2013-11-14 02:38:00,
2013-11-13 16:43:00,73.3,61.7,29.93,WSW,254,0.5,1.2,67,0.00,SCT,,0.00,102.0,WeatherDisplay:10.37,2013-11-14 02:43:00,
2013-11-13 16:48:00,73.3,61.7,29.93,SW,225,2.1,4.6,67,0.00,SCT,,0.00,91.0,WeatherDisplay:10.37,2013-11-14 02:48:00,
2013-11-13 16:53:00,73.1,61.1,29.93,West,276,4.0,6.9,66,0.00,FEW,,0.00,98.0,WeatherDisplay:10.37,2013-11-14 02:53:00,
2013-11-13 16:58:00,73.0,60.5,29.94,WNW,284,2.5,5.8,65,0.00,FEW,,0.00,91.0,WeatherDisplay:10.37,2013-11-14 02:58:00,
2013-11-13 17:03:00,72.9,60.4,29.94,SW,227,3.5,5.8,65,0.00,SCT,,0.00,65.0,WeatherDisplay:10.37,2013-11-14 03:03:00,
2013-11-13 17:08:00,72.7,60.3,29.94,WNW,296,2.7,3.5,65,0.00,CLR,,0.00,83.0,WeatherDisplay:10.37,2013-11-14 03:08:00,
2013-11-13 17:13:00,72.6,60.2,29.94,West,271,1.8,3.5,65,0.00,CLR,,0.00,84.0,WeatherDisplay:10.37,2013-11-14 03:13:00,
2013-11-13 17:18:00,72.5,59.6,29.94,SW,236,1.8,3.5,64,0.00,CLR,,0.00,63.0,WeatherDisplay:10.37,2013-11-14 03:18:00,
2013-11-13 17:23:00,72.5,60.1,29.94,SW,236,0.9,2.3,65,0.00,CLR,,0.00,62.0,WeatherDisplay:10.37,2013-11-14 03:23:00,
2013-11-13 17:28:00,72.5,60.5,29.94,WSW,250,2.5,3.5,66,0.00,CLR,,0.00,44.0,WeatherDisplay:10.37,2013-11-14 03:28:00,
2013-11-13 17:33:00,72.4,60.4,29.94,SW,228,3.1,5.0,66,0.00,CLR,,0.00,33.0,WeatherDisplay:10.37,2013-11-14 03:33:00,
2013-11-13 17:38:00,72.2,60.2,29.94,West,262,1.5,3.5,66,0.00,CLR,,0.00,25.0,WeatherDisplay:10.37,2013-11-14 03:38:00,
2013-11-13 17:43:00,72.1,60.1,29.94,WSW,254,1.2,3.5,66,0.00,CLR,,0.00,14.0,WeatherDisplay:10.37,2013-11-14 03:43:00,
2013-11-13 17:48:00,71.9,60.3,29.94,WNW,290,1.5,4.0,67,0.00,CLR,,0.00,7.0,WeatherDisplay:10.37,2013-11-14 03:48:00,
2013-11-13 17:53:00,71.7,60.2,29.94,West,273,0.6,2.3,67,0.00,CLR,,0.00,5.0,WeatherDisplay:10.37,2013-11-14 03:53:00,
2013-11-13 17:58:00,71.5,60.0,29.95,West,273,0.1,2.3,67,0.00,CLR,,0.00,0.0,WeatherDisplay:10.37,2013-11-14 03:58:00,
2013-11-13 18:03:00,71.4,59.9,29.95,WNW,282,0.7,3.5,67,0.00,CLR,,0.00,0.0,WeatherDisplay:10.37,2013-11-14 04:03:00,
2013-11-13 18:08:00,71.2,59.7,29.95,West,281,0.5,2.3,67,0.00,CLR,,0.00,0.0,WeatherDisplay:10.37,2013-11-14 04:08:00,
2013-11-13 18:13:00,71.0,59.9,29.95,WNW,286,0.0,0.0,68,0.00,CLR,,0.00,0.0,WeatherDisplay:10.37,2013-11-14 04:13:00,
2013-11-13 18:18:00,70.8,59.7,29.95,WNW,284,0.7,2.3,68,0.00,CLR,,0.00,0.0,WeatherDisplay:10.37,2013-11-14 04:18:00,
2013-11-13 18:23:00,70.6,59.5,29.95,WNW,283,1.2,3.5,68,0.00,CLR,,0.00,0.0,WeatherDisplay:10.37,2013-11-14 04:23:00,
2013-11-13 18:28:00,70.4,59.7,29.95,WNW,286,0.5,3.5,69,0.00,CLR,,0.00,0.0,WeatherDisplay:10.37,2013-11-14 04:28:00,
2013-11-13 18:33:00,70.3,59.6,29.95,WNW,286,0.1,1.2,69,0.00,CLR,,0.00,0.0,WeatherDisplay:10.37,2013-11-14 04:33:00,
2013-11-13 18:38:00,70.2,59.6,29.95,West,279,0.1,1.2,69,0.00,CLR,,0.00,0.0,WeatherDisplay:10.37,2013-11-14 04:38:00,
2013-11-13 18:43:00,70.1,59.5,29.95,West,279,0.0,1.2,69,0.00,CLR,,0.00,0.0,WeatherDisplay:10.37,2013-11-14 04:43:00,
2013-11-13 18:48:00,70.0,59.8,29.96,West,279,0.0,1.2,70,0.00,CLR,,0.00,0.0,WeatherDisplay:10.37,2013-11-14 04:48:00,
2013-11-13 18:53:00,69.9,59.7,29.96,WNW,303,0.0,1.2,70,0.00,CLR,,0.00,0.0,WeatherDisplay:10.37,2013-11-14 04:53:00,
2013-11-13 18:58:00,69.8,59.6,29.96,NW,311,0.5,2.3,70,0.00,CLR,,0.00,0.0,WeatherDisplay:10.37,2013-11-14 04:58:00,
2013-11-13 19:01:00,69.8,59.6,29.96,NW,311,0.0,0.0,70,0.00,CLR,,0.00,0.0,WeatherDisplay:10.37,2013-11-14 05:01:00,
2013-11-13 19:03:00,69.8,59.6,29.96,NW,311,0.4,1.2,70,0.00,CLR,,0.00,0.0,WeatherDisplay:10.37,2013-11-14 05:03:00,
2013-11-13 19:10:00,69.7,59.5,29.97,NW,313,1.0,2.0,70,0.00,CLR,,0.00,0.0,WeatherDisplay:10.37,2013-11-14 05:10:00,
2013-11-13 19:19:00,69.7,59.9,29.97,NW,313,0.0,0.0,71,0.00,,,0.00,0,Wunderground v.1.15,2013-11-14 05:19:00,
2013-11-13 19:20:00,69.7,59.9,29.97,NW,315,1.0,2.0,71,0.00,CLR,,0.00,0.0,WeatherDisplay:10.37,2013-11-14 05:20:00,
2013-11-13 19:24:00,69.7,59.9,29.97,NW,313,0.0,1.2,71,0.00,CLR,,0.00,0.0,WeatherDisplay:10.37,2013-11-14 05:24:00,
2013-11-13 19:29:00,69.6,60.2,29.98,NW,313,0.2,1.2,72,0.00,CLR,,0.00,0.0,WeatherDisplay:10.37,2013-11-14 05:29:00,
2013-11-13 19:42:00,69.2,59.8,29.98,NNW,329,1.2,2.3,72,0.00,CLR,,0.00,0.0,WeatherDisplay:10.37,2013-11-14 05:42:00,
2013-11-13 19:47:00,69.0,60.0,29.98,NNW,329,0.1,0.0,73,0.00,CLR,,0.00,0.0,WeatherDisplay:10.37,2013-11-14 05:47:00,
2013-11-13 19:52:00,68.9,60.3,29.98,NNW,329,1.2,3.5,74,0.00,CLR,,0.00,0.0,WeatherDisplay:10.37,2013-11-14 05:52:00,
2013-11-13 19:57:00,68.8,60.2,29.98,NNW,329,1.2,2.3,74,0.00,CLR,,0.00,0.0,WeatherDisplay:10.37,2013-11-14 05:57:00,
2013-11-13 20:02:00,68.7,60.1,29.98,NNW,329,1.5,2.3,74,0.00,CLR,,0.00,0.0,WeatherDisplay:10.37,2013-11-14 06:02:00,
2013-11-13 20:07:00,68.5,60.3,29.98,NNW,329,1.3,3.5,75,0.00,CLR,,0.00,0.0,WeatherDisplay:10.37,2013-11-14 06:07:00,
2013-11-13 20:14:00,68.4,60.2,29.98,NNW,329,0.6,2.3,75,0.00,CLR,,0.00,0.0,WeatherDisplay:10.37,2013-11-14 06:14:00,
2013-11-13 20:19:00,68.4,60.2,29.98,NNW,329,1.2,3.5,75,0.00,CLR,,0.00,0.0,WeatherDisplay:10.37,2013-11-14 06:19:00,
2013-11-13 20:24:00,68.2,60.0,29.99,NNW,329,0.6,2.3,75,0.00,CLR,,0.00,0.0,WeatherDisplay:10.37,2013-11-14 06:24:00,
2013-11-13 20:29:00,68.2,60.3,29.98,NNW,329,0.0,1.2,76,0.00,CLR,,0.00,0.0,WeatherDisplay:10.37,2013-11-14 06:29:00,
2013-11-13 20:34:00,68.1,60.2,29.98,NNW,329,0.1,1.2,76,0.00,CLR,,0.00,0.0,WeatherDisplay:10.37,2013-11-14 06:34:00,
2013-11-13 20:39:00,68.1,60.2,29.99,NNW,329,0.0,0.0,76,0.00,CLR,,0.00,0.0,WeatherDisplay:10.37,2013-11-14 06:39:00,
2013-11-13 20:44:00,68.0,60.2,29.99,NNW,329,0.0,1.2,76,0.00,CLR,,0.00,0.0,WeatherDisplay:10.37,2013-11-14 06:44:00,
2013-11-13 20:49:00,67.9,60.1,29.99,NNW,329,0.0,0.0,76,0.00,CLR,,0.00,0.0,WeatherDisplay:10.37,2013-11-14 06:49:00,
2013-11-13 20:54:00,67.8,60.0,29.99,NNW,329,0.2,1.2,76,0.00,CLR,,0.00,0.0,WeatherDisplay:10.37,2013-11-14 06:54:00,
2013-11-13 20:59:00,67.7,59.9,29.99,NNW,329,0.0,0.0,76,0.00,CLR,,0.00,0.0,WeatherDisplay:10.37,2013-11-14 06:59:00,
2013-11-13 21:04:00,67.6,60.1,29.99,NNW,329,0.0,0.0,77,0.00,CLR,,0.00,0.0,WeatherDisplay:10.37,2013-11-14 07:04:00,
2013-11-13 21:09:00,67.5,60.0,29.99,NNW,329,0.0,0.0,77,0.00,CLR,,0.00,0.0,WeatherDisplay:10.37,2013-11-14 07:09:00,
2013-11-13 21:14:00,67.4,59.9,29.99,NNW,329,0.4,1.2,77,0.00,CLR,,0.00,0.0,WeatherDisplay:10.37,2013-11-14 07:14:00,
2013-11-13 21:19:00,67.2,59.7,29.99,NNW,329,0.1,1.2,77,0.00,CLR,,0.00,0.0,WeatherDisplay:10.37,2013-11-14 07:19:00,
2013-11-13 21:24:00,67.1,59.6,29.99,NNW,329,0.0,0.0,77,0.00,CLR,,0.00,0.0,WeatherDisplay:10.37,2013-11-14 07:24:00,
2013-11-13 21:29:00,67.0,59.5,29.99,NNW,329,1.0,3.5,77,0.00,CLR,,0.00,0.0,WeatherDisplay:10.37,2013-11-14 07:29:00,
2013-11-13 21:34:00,67.0,59.9,29.99,NNW,329,0.0,1.2,78,0.00,CLR,,0.00,0.0,WeatherDisplay:10.37,2013-11-14 07:34:00,
2013-11-13 21:39:00,66.9,59.8,29.99,NNW,329,0.0,0.0,78,0.00,CLR,,0.00,0.0,WeatherDisplay:10.37,2013-11-14 07:39:00,
2013-11-13 21:44:00,66.9,59.8,29.98,NNW,329,0.6,2.3,78,0.00,CLR,,0.00,0.0,WeatherDisplay:10.37,2013-11-14 07:44:00,
2013-11-13 21:49:00,67.0,60.3,29.99,NNW,329,0.0,0.0,79,0.00,CLR,,0.00,0.0,WeatherDisplay:10.37,2013-11-14 07:49:00,
2013-11-13 21:54:00,67.0,60.3,29.99,NNW,329,0.0,1.0,79,0.00,CLR,,0.00,0.0,WeatherDisplay:10.37,2013-11-14 07:54:00,
2013-11-13 21:59:00,67.1,60.4,29.99,North,355,0.0,0.0,79,0.00,CLR,,0.00,0.0,WeatherDisplay:10.37,2013-11-14 07:59:00,
2013-11-13 22:04:00,67.2,60.5,29.99,North,355,0.0,0.0,79,0.00,CLR,,0.00,0.0,WeatherDisplay:10.37,2013-11-14 08:04:00,
2013-11-13 22:09:00,67.3,60.6,29.99,North,355,0.0,0.0,79,0.00,CLR,,0.00,0.0,WeatherDisplay:10.37,2013-11-14 08:09:00,
2013-11-13 22:14:00,67.3,60.6,29.99,North,355,0.1,1.2,79,0.00,CLR,,0.00,0.0,WeatherDisplay:10.37,2013-11-14 08:14:00,
2013-11-13 22:19:00,67.5,60.4,30.00,North,355,0.2,1.2,78,0.00,CLR,,0.00,0.0,WeatherDisplay:10.37,2013-11-14 08:19:00,
2013-11-13 22:24:00,67.6,60.5,30.00,North,355,0.0,0.0,78,0.00,CLR,,0.00,0.0,WeatherDisplay:10.37,2013-11-14 08:24:00,
2013-11-13 22:29:00,67.7,60.6,30.00,North,355,0.0,0.0,78,0.00,CLR,,0.00,0.0,WeatherDisplay:10.37,2013-11-14 08:29:00,
2013-11-13 22:34:00,67.8,60.7,30.00,North,355,0.0,0.0,78,0.00,CLR,,0.00,0.0,WeatherDisplay:10.37,2013-11-14 08:34:00,
2013-11-13 22:39:00,67.9,60.8,30.00,North,355,0.0,0.0,78,0.00,CLR,,0.00,0.0,WeatherDisplay:10.37,2013-11-14 08:39:00,
2013-11-13 22:44:00,68.0,60.9,30.00,North,355,0.2,1.2,78,0.00,CLR,,0.00,0.0,WeatherDisplay:10.37,2013-11-14 08:44:00,
2013-11-13 22:49:00,68.2,61.1,30.00,North,355,0.0,0.0,78,0.00,CLR,,0.00,0.0,WeatherDisplay:10.37,2013-11-14 08:49:00,
2013-11-13 22:54:00,68.4,61.3,29.99,North,355,0.0,0.0,78,0.00,CLR,,0.00,0.0,WeatherDisplay:10.37,2013-11-14 08:54:00,
2013-11-13 22:59:00,68.5,61.4,29.99,North,355,0.0,0.0,78,0.00,CLR,,0.00,0.0,WeatherDisplay:10.37,2013-11-14 08:59:00,
2013-11-13 23:04:00,68.7,61.6,29.99,North,355,0.0,0.0,78,0.00,CLR,,0.00,0.0,WeatherDisplay:10.37,2013-11-14 09:04:00,
2013-11-13 23:09:00,68.8,61.7,29.98,North,355,0.0,0.0,78,0.00,CLR,,0.00,0.0,WeatherDisplay:10.37,2013-11-14 09:09:00,
2013-11-13 23:14:00,68.9,61.8,29.98,North,355,0.0,0.0,78,0.00,CLR,,0.00,0.0,WeatherDisplay:10.37,2013-11-14 09:14:00,
2013-11-13 23:19:00,69.0,61.5,29.98,North,355,0.0,0.0,77,0.00,CLR,,0.00,0.0,WeatherDisplay:10.37,2013-11-14 09:19:00,
2013-11-13 23:24:00,69.0,61.5,29.98,North,355,0.1,1.2,77,0.00,CLR,,0.00,0.0,WeatherDisplay:10.37,2013-11-14 09:24:00,
2013-11-13 23:29:00,68.9,61.4,29.98,North,355,0.0,1.2,77,0.00,CLR,,0.00,0.0,WeatherDisplay:10.37,2013-11-14 09:29:00,
2013-11-13 23:34:00,68.8,61.3,29.98,North,355,0.0,0.0,77,0.00,CLR,,0.00,0.0,WeatherDisplay:10.37,2013-11-14 09:34:00,
2013-11-13 23:39:00,68.7,61.2,29.98,North,355,0.0,0.0,77,0.00,CLR,,0.00,0.0,WeatherDisplay:10.37,2013-11-14 09:39:00,
2013-11-13 23:44:00,68.6,61.1,29.98,North,355,0.1,1.2,77,0.00,CLR,,0.00,0.0,WeatherDisplay:10.37,2013-11-14 09:44:00,
2013-11-13 23:49:00,68.5,61.4,29.97,North,355,1.6,3.5,78,0.00,CLR,,0.00,0.0,WeatherDisplay:10.37,2013-11-14 09:49:00,
2013-11-13 23:54:00,68.3,61.2,29.97,North,355,2.2,3.5,78,0.00,CLR,,0.00,0.0,WeatherDisplay:10.37,2013-11-14 09:54:00,
2013-11-13 23:59:00,68.0,60.9,29.97,North,355,0.4,1.2,78,0.00,CLR,,0.00,0.0,WeatherDisplay:10.37,2013-11-14 09:59:00,